一网星座-0326星 (ONEWEB-0326 )

导读

ONEWEB-0326是英国OneWeb卫星互联网星座的成员,于2021年9月14日发射,归属英国(GB)。作为低轨通信卫星,它运行在近地轨道,属于OneWeb全球宽带卫星组网的一部分,旨在为全球提供高速、低延迟的互联网接入服务,尤其为高纬度区域率先提供连接支持,后续也可服务于军事通信等领域,助力全球无缝网络覆盖构建。

基本信息
目录编号:
49195
目录名称:
ONEWEB-0326
国际标识:
2021-083K
轨道中心:
EARTH
卫星名称:
一网星座-0326星
卫星全名:
一网星座-0326星 (ONEWEB-0326 )
卫星状态:
在轨 (已飞行1732 天)
发射日期:
2021-09-14 UTC
国别 :
英国 (GB)
星等 :
--
轨道信息
数据来源 国际轨道数据 AOE轨道数据
星历时间 2026-06-12T07:51:47+0800
21小时前
查看轨道信息
2026-06-10T16:00:00+0800
2天前
查看轨道信息
半长轴 7567.885km 7567.905km
偏心率 0.0002033 0.0002899
轨道倾角 87.917° 87.918°
近地点辐角 85.809° 68.943°
升交点赤经 336.489° 336.820°
平近点角 274.327° 330.678°
近地点 1188.209km 1187.574km
远地点 1191.287km 1191.962km
周期 109.200分钟 109.200分钟
每日圈数 13.186848 13.186796
详细信息
平衡模式:
三轴稳定
覆盖范围:
全球
运营商:
一网卫星公司
运营商所在国:
英国
制造商(研发单位):
一网卫星公司
制造商所在国:
英国
使用方式:
暂无
卫星简介
OneWeb卫星网络由648颗重约125公斤的微型卫星组成,运行在1200公里的轨道上。 每颗卫星都能够提供至少每秒8千兆位的吞吐量,以使用其高吞吐量的Ku频段有效载荷为家庭和移动平台提供互联网接入。该卫星仍在工作。
2D轨道图
3D轨道图
轨道高度分析图
轨道倾角分析图
轨道综合分析图
查看轨道综合分析图